Welcome, Guest. Please login or register.
Did you miss your activation email?

Username: Password:
Outdoor Wood Furnace Info - Statistics Center
General Statistics
Total Members: 8188
Total Posts: 75353
Total Topics: 7076
Total Categories: 6
Users Online: 16
Most Online: 165 - May 22, 2013, 12:42:02 PM
Online Today: 26
Average registrations per day: 6.69
Average posts per day: 22.78
Average topics per day: 2.64
Total Boards: 50
Latest Member: Farm Guy
Average online per day: 25.01
Male to Female Ratio: 89.7:1
Top 10 Posters Top 10 Boards
slimjim 5133
mlappin 3746
Scott7m 3740
RSI 2783
willieG 1852
Roger2561 1548
hondaracer2oo4 1420
coolidge 1395
atvalaska 1273
MattyNH 1256
General Outdoor Furnace Discussion 29849
Plumbing 7292
Central Boiler 4589
General Discussion 4282
HeatMaster 3675
Portage & Main 3657
Fire Wood 3225
Home Made 2484
Equipment 2205
Electronics 2155
Top 10 Topics (by Replies) Top 10 Topics (by Views)
new heatmor and having huge issues 491
our wood stoves are horrible but epa thinks this is fine 344
Gasification wood boiler build 303
Almost 172
Wood Consumption vs. Application 144
TYPE of CHAIN SAWS USED 138
ProFab has some issues! 130
Ridgewood stoves 124
Global warming, climate change? Article 124
I'm impressed 123
Synergy Boilers? 578896
HELP! I hate my SHAVER! 466033
TAKE A STAND AGAINST MIDWEST (SYNERGY) BOILERS 444255
Synergy Boilers 98558
Gasification wood boiler build 58272
new heatmor and having huge issues 33637
Truth about Wood Doctor by president 30203
My homemade/modified forced air wood furnace 27941
Suggested Water Temperature on Boiler 27687
Used Hardy Stove info 24138
Top Topic Starters Most Time Online
coolidge 333
Roger2561 209
mlappin 108
slimjim 107
Scott7m 102
d5knapp 77
AirForcePOL 66
userdk 65
hondaracer2oo4 60
heat550 54
slimjim 89d 20h 18m
willieG 89d 16h 0m
RSI 45d 8h 16m
Scott7m 35d 21h 14m
mlappin 35d 20h 53m
koutsman 29d 12h 51m
MD20/20 26d 9h 46m
sceptre74 24d 20h 49m
CountryBoyJohn 20d 23h 22m
Roger2561 20d 4h 12m
Forum History (using forum time offset)
Yearly Summary New Topics New Posts New Members Most Online
* 2018 99 1228 490 54
* 2017 597 7391 3268 65
December 2017 70 940 259 42
November 2017 77 940 272 40
October 2017 66 673 305 48
September 2017 40 581 253 42
August 2017 50 619 275 31
July 2017 16 164 329 33
June 2017 28 227 264 54
May 2017 30 407 291 45
April 2017 40 748 290 60
March 2017 46 601 306 49
2017-03-01 2 22 17 22
2017-03-02 2 14 16 22
2017-03-03 1 33 11 48
2017-03-04 5 48 10 26
2017-03-05 0 27 13 26
2017-03-06 5 41 10 21
2017-03-07 1 27 10 23
2017-03-08 4 37 10 27
2017-03-09 1 18 14 27
2017-03-10 1 17 11 49
2017-03-11 0 25 8 22
2017-03-12 3 10 8 25
2017-03-13 2 19 2 22
2017-03-14 1 20 8 21
2017-03-15 1 28 7 21
2017-03-16 2 21 13 30
2017-03-17 1 17 10 32
2017-03-18 0 16 7 34
2017-03-19 1 15 9 25
2017-03-20 0 5 10 28
2017-03-21 0 1 8 28
2017-03-22 2 16 6 46
2017-03-23 0 15 10 24
2017-03-24 2 18 6 46
2017-03-25 2 25 3 20
2017-03-26 2 12 9 31
2017-03-27 2 21 14 32
2017-03-28 2 11 9 21
2017-03-29 0 14 19 30
2017-03-30 0 3 8 23
2017-03-31 1 5 10 43
February 2017 43 569 241 65
January 2017 91 922 183 53
* 2016 546 5025 3090 75
December 2016 75 786 262 49
November 2016 55 512 251 75
October 2016 50 389 217 39
September 2016 43 244 237 27
August 2016 20 105 129 44
July 2016 14 75 126 53
June 2016 11 86 151 49
May 2016 22 164 179 39
April 2016 22 222 548 51
2016-04-01 2 8 41 33
2016-04-02 2 9 26 50
2016-04-03 1 9 57 47
2016-04-04 3 16 31 51
2016-04-05 1 9 36 25
2016-04-06 1 4 56 28
2016-04-07 1 9 40 33
2016-04-08 1 32 45 29
2016-04-09 0 9 28 24
2016-04-10 0 11 42 24
2016-04-11 1 11 32 30
2016-04-12 0 5 11 40
2016-04-13 1 9 6 24
2016-04-14 0 9 10 22
2016-04-15 0 7 10 25
2016-04-16 1 4 4 36
2016-04-17 2 4 3 28
2016-04-18 0 5 11 23
2016-04-19 1 6 4 28
2016-04-20 2 12 3 28
2016-04-21 0 6 8 27
2016-04-22 0 2 3 25
2016-04-23 2 6 3 23
2016-04-24 0 4 5 22
2016-04-25 0 4 5 21
2016-04-26 0 3 8 21
2016-04-27 0 0 6 26
2016-04-28 0 3 4 25
2016-04-29 0 2 4 24
2016-04-30 0 4 6 21
March 2016 43 454 576 68
February 2016 74 806 123 58
January 2016 117 1182 291 52
* 2015 1317 11279 9513 67
* 2014 2461 21938 4588 110
December 2014 215 2107 549 52
November 2014 197 1812 286 67
October 2014 172 1628 410 60
2014-10-01 9 55 11 36
2014-10-02 5 51 10 44
2014-10-03 3 30 8 47
2014-10-04 5 20 17 46
2014-10-05 6 66 26 54
2014-10-06 8 93 19 51
2014-10-07 4 52 28 51
2014-10-08 7 53 15 49
2014-10-09 6 60 22 47
2014-10-10 3 52 20 54
2014-10-11 4 25 13 45
2014-10-12 3 22 15 49
2014-10-13 2 38 14 54
2014-10-14 4 34 10 56
2014-10-15 6 51 11 52
2014-10-16 6 106 11 47
2014-10-17 10 69 6 46
2014-10-18 8 43 11 45
2014-10-19 8 65 9 60
2014-10-20 4 60 15 55
2014-10-21 5 56 17 59
2014-10-22 7 62 16 51
2014-10-23 5 63 2 54
2014-10-24 2 27 14 46
2014-10-25 3 23 10 42
2014-10-26 9 54 9 46
2014-10-27 7 55 12 56
2014-10-28 4 69 9 51
2014-10-29 4 60 11 49
2014-10-30 9 63 8 50
2014-10-31 6 51 11 50
September 2014 122 1114 280 58
August 2014 75 619 251 50
July 2014 63 577 318 56
June 2014 654 2289 733 61
May 2014 158 1011 490 49
April 2014 130 2321 281 57
March 2014 188 2594 282 110
February 2014 229 2915 334 78
January 2014 258 2951 374 86
* 2013 1171 11341 1091 165
* 2012 1863 11381 918 70
* 2011 741 7884 698 76
* 2010 444 2717 284 98
December 2010 51 657 81 27
November 2010 39 339 52 25
October 2010 43 332 38 20
September 2010 34 254 23 14
August 2010 9 72 14 14
July 2010 10 60 8 16
June 2010 11 51 4 15
May 2010 8 42 9 12
April 2010 13 94 10 13
March 2010 157 266 11 14
February 2010 23 193 7 98
2010-02-01 1 3 0 10
2010-02-02 0 7 1 16
2010-02-03 0 4 0 15
2010-02-04 0 0 0 10
2010-02-05 1 4 0 10
2010-02-06 3 4 0 8
2010-02-07 1 4 1 10
2010-02-08 0 7 0 9
2010-02-09 0 5 1 12
2010-02-10 3 18 1 12
2010-02-11 2 31 1 12
2010-02-12 0 5 0 14
2010-02-13 0 4 0 10
2010-02-14 2 18 0 12
2010-02-15 0 5 0 15
2010-02-16 2 12 0 20
2010-02-17 0 9 0 14
2010-02-18 1 3 0 8
2010-02-19 1 8 1 10
2010-02-20 1 2 0 11
2010-02-21 3 7 0 11
2010-02-22 0 3 0 11
2010-02-23 0 2 0 12
2010-02-24 0 12 0 11
2010-02-25 2 4 1 9
2010-02-26 0 3 0 16
2010-02-27 0 9 0 98
2010-02-28 0 0 0 9
January 2010 46 357 27 18
2010-01-01 0 10 0 9
2010-01-02 2 8 1 8
2010-01-03 3 36 1 13
2010-01-04 1 15 2 10
2010-01-05 5 15 1 12
2010-01-06 1 10 2 10
2010-01-07 1 12 1 14
2010-01-08 3 28 0 9
2010-01-09 0 3 0 7
2010-01-10 4 19 1 8
2010-01-11 2 13 2 13
2010-01-12 0 17 1 11
2010-01-13 2 9 1 9
2010-01-14 2 26 0 14
2010-01-15 0 22 0 10
2010-01-16 0 1 2 8
2010-01-17 0 1 0 8
2010-01-18 1 4 0 10
2010-01-19 0 6 1 11
2010-01-20 3 13 3 11
2010-01-21 0 6 0 8
2010-01-22 1 3 0 18
2010-01-23 2 10 1 11
2010-01-24 0 4 1 11
2010-01-25 3 12 0 10
2010-01-26 2 6 1 14
2010-01-27 2 10 1 13
2010-01-28 1 7 1 9
2010-01-29 1 3 0 12
2010-01-30 2 15 2 10
2010-01-31 2 13 1 15
* 2009 217 1823 163 20
* 2008 119 553 148 28